Location: Newark
(37.3167°N, 13.4667°E)
Time: 13:17:17
(UTC+00:00)

Starlink (trailer) - Visible Passes

Search period start: 18 July 2019 00:00
Search period end: 28 July 2019 00:00
Orbit: 548 x 551 km, 53.0° (Epoch: 17 July)

Date Brightness Start Highest point End Pass type
(mag) Time Alt. Az. Time Alt. Az. Time Alt. Az.
18 Jul 4.4 01:01:01 51° NNE 01:01:01 51° NNE 01:04:20 10° NE visible
18 Jul 6.1 02:37:55 10° WNW 02:40:26 15° NNW 02:42:57 10° NNE visible
19 Jul 4.7 00:55:34 42° N 00:55:34 42° N 00:58:51 10° NE visible
19 Jul 6.2 02:33:11 10° NW 02:35:15 13° NNW 02:37:18 10° NNE visible
20 Jul 5.0 00:50:05 34° NNW 00:50:05 34° NNW 00:53:20 10° NNE visible
20 Jul 6.3 02:28:34 10° NW 02:30:05 12° NNW 02:31:34 10° N visible
21 Jul 5.4 00:44:33 28° NNW 00:44:33 28° NNW 00:47:47 10° NNE visible
21 Jul 6.5 02:24:09 10° NNW 02:24:55 10° NNW 02:25:41 10° N visible
22 Jul 5.7 00:38:59 23° NNW 00:38:59 23° NNW 00:42:13 10° NNE visible
22 Jul 6.6 22:57:44 10° NE 22:57:44 10° NE 22:57:45 10° NE visible
23 Jul 5.9 00:33:21 19° NNW 00:33:38 19° NNW 00:36:37 10° NNE visible
23 Jul 6.5 22:52:03 12° NE 22:52:03 12° NE 22:52:20 10° NE visible
24 Jul 6.2 00:27:40 15° NW 00:28:23 16° NNW 00:30:59 10° NNE visible
24 Jul 6.4 22:46:18 13° NE 22:46:18 13° NE 22:46:51 10° NE visible
25 Jul 6.4 00:21:55 12° NW 00:23:11 14° NNW 00:25:19 10° NNE visible
25 Jul 6.3 22:40:26 15° NNE 22:40:26 15° NNE 22:41:20 10° NE visible
26 Jul 6.6 00:16:24 10° NW 00:18:00 12° NNW 00:19:36 10° N visible
26 Jul 6.3 03:36:58 10° NNW 03:40:11 21° NNE 03:43:24 10° ENE visible
26 Jul 6.2 22:34:25 18° NNE 22:34:25 18° NNE 22:35:47 10° NNE visible
27 Jul 6.8 00:11:54 10° NNW 00:12:49 11° NNW 00:13:45 10° N visible
27 Jul 7.0 01:53:51 10° N 01:54:06 10° N 01:54:21 10° NNE visible
27 Jul 6.0 03:31:23 10° NNW 03:34:54 26° NNE 03:38:25 10° E visible
27 Jul 6.1 22:28:06 20° N 22:28:06 20° N 22:30:11 10° NNE visible
